Temp
64 67 71 71 71 70 70 70 70 70 71 71 72 72 73 74 74 73 74 74 75 75 76 77 78 77 77 75 75 77 76 75 75 75 75 74 75 75 74 73 73 76 74
66 67 70 71 70 70 69 69 69 70 70 71 71 71 71 72 73 73 73 73 74 75 76 76 77 78 77 75 75 75 75 74 74 73 73 72 74 75 74 73 73 75 74
65 67 69 69 69 69 69 69 69 69 69 70 70 70 71 71 71 72 72 72 73 74 75 76 76 76 75 74 74 74 75 74 73 72 72 77 76 74 74 74 74 74 73
65 66 66 68 69 68 68 68 68 69 69 69 69 70 70 70 70 70 71 71 73 73 74 75 76 75 74 74 74 74 74 73 72 71 75 76 76 75 75 75 74 74 73
64 64 65 68 68 68 68 68 68 68 68 68 69 69 69 69 69 69 70 70 71 72 73 74 74 74 74 74 74 73 73 73 71 71 74 75 76 75 75 75 74 73 71
62 63 66 68 68 68 67 67 67 67 68 68 68 68 68 68 68 68 69 70 70 71 73 73 73 73 73 73 73 73 72 72 70 75 74 74 75 75 75 74 72 71 71
60 61 64 67 67 67 67 67 66 67 67 67 67 67 67 67 67 67 67 68 69 71 72 72 72 72 72 72 72 72 72 70 74 73 73 74 74 74 75 73 72 72 71
60 60 62 65 66 66 66 66 66 66 66 66 66 65 65 65 65 65 66 66 67 69 70 70 70 71 71 71 71 71 70 68 69 73 73 73 72 74 75 73 72 72 71
59 59 59 61 63 64 65 64 64 64 64 64 64 63 62 62 62 62 62 63 65 66 68 69 69 69 70 71 70 69 67 66 72 72 71 71 69 74 74 73 72 72 71
57 57 57 58 59 59 59 61 62 62 62 62 60 59 59 58 57 57 59 60 63 65 66 66 67 68 69 69 69 67 65 65 71 71 71 68 70 73 72 73 72 72 71
56 56 56 56 57 57 58 58 58 58 58 57 56 56 55 56 56 56 57 58 61 62 63 64 66 67 66 66 66 65 64 70 70 70 69 67 70 71 74 73 72 72 71
54 55 56 56 56 56 59 56 55 56 55 54 54 54 55 55 54 56 54 55 57 58 60 62 64 64 64 67 68 64 69 69 68 68 67 67 69 70 70 73 72 71 71
55 56 56 55 55 55 56 54 54 53 53 53 53 53 53 54 54 54 53 54 55 56 59 60 62 65 65 64 64 63 65 65 65 65 66 66 68 66 67 72 72 71 70
54 56 56 55 54 53 53 53 53 53 53 53 52 52 52 52 52 53 53 53 53 56 57 60 60 62 64 63 64 63 63 63 63 65 64 63 65 68 71 72 72 71 70
54 55 55 54 53 53 52 51 52 52 52 51 51 51 52 51 51 52 52 54 54 56 58 59 60 61 63 61 63 61 62 62 63 63 64 60 64 70 71 72 71 72 71
54 54 54 53 52 51 51 50 51 51 51 51 51 51 51 52 51 52 52 53 54 57 58 58 58 61 61 59 59 60 60 60 60 60 61 62 63 67 68 72 71 71 71
54 54 52 51 50 50 50 50 50 49 50 49 50 51 51 52 52 52 52 53 55 57 58 59 61 61 60 58 59 60 60 60 61 60 59 60 61 61 65 71 70 71 70
53 52 51 52 49 49 49 49 49 49 49 49 50 51 51 52 53 53 53 53 55 58 59 58 59 58 57 58 58 59 59 59 59 59 59 59 60 62 62 66 69 69 69
52 50 48 48 48 47 48 47 47 47 48 49 50 51 52 54 54 54 54 55 56 57 57 57 59 59 57 56 57 58 58 58 57 56 56 56 57 58 60 61 61 62 65
49 48 48 47 47 46 46 46 46 47 48 49 51 52 54 54 54 55 55 54 54 56 56 58 58 59 57 56 55 52 53 55 55 54 53 54 54 55 57 59 60 59 61
46 46 46 46 45 46 45 45 44 45 46 48 51 52 54 54 54 53 54 53 54 54 55 57 58 57 55 53 51 49 49 50 51 51 52 52 51 53 54 53 54 54 54
45 45 45 46 45 45 44 43 44 44 46 47 50 51 52 52 52 53 53 52 53 53 55 57 59 55 54 55 51 51 46 46 47 48 49 49 49 52 50 50 50 51 51
43 44 45 45 44 44 44 44 44 45 46 47 48 49 50 51 51 51 52 52 52 53 54 56 57 57 53 53 54 52 46 42 44 46 46 47 48 48 48 48 49 50 52
43 43 44 44 44 44 43 44 43 43 43 45 45 47 48 49 49 51 51 52 51 52 54 55 57 57 56 51 51 52 56 52 43 41 44 45 46 46 46 46 48 49 51
42 41 43 43 43 43 43 43 43 42 43 45 45 45 46 47 49 50 50 51 50 52 53 56 55 55 55 54 53 50 51 51 48 47 41 42 44 45 45 45 46 48 48
40 40 41 41 41 42 43 43 43 43 43 43 44 44 44 46 48 49 50 49 50 51 51 55 55 55 53 54 54 53 53 49 47 45 43 42 42 42 44 45 45 46 47
MSLP
1015.90 1015.81 1015.77 1016.01 1016.29 1016.48 1016.58 1016.69 1016.70 1016.63 1016.54 1016.40 1016.23 1016.01 1015.86 1015.82 1015.80 1015.76 1015.75 1015.70 1015.64 1015.59 1015.54 1015.46 1015.44 1015.56 1015.71 1015.94 1016.08 1016.09 1016.30 1016.54 1016.68 1016.74 1016.92 1017.15 1017.32 1017.67 1017.98 1018.32 1018.36 1018.49 1018.85
1015.30 1015.51 1015.60 1015.90 1016.22 1016.50 1016.66 1016.75 1016.82 1016.79 1016.71 1016.62 1016.53 1016.38 1016.16 1016.02 1015.90 1015.83 1015.73 1015.70 1015.61 1015.49 1015.42 1015.38 1015.38 1015.38 1015.52 1015.71 1015.99 1016.10 1016.30 1016.53 1016.70 1016.89 1017.04 1017.37 1017.53 1017.74 1018.03 1018.26 1018.45 1018.67 1019.00
1015.29 1015.59 1015.81 1016.06 1016.28 1016.54 1016.72 1016.85 1016.87 1016.83 1016.78 1016.76 1016.71 1016.64 1016.54 1016.37 1016.16 1015.96 1015.79 1015.71 1015.57 1015.46 1015.30 1015.22 1015.17 1015.34 1015.47 1015.64 1015.89 1016.08 1016.26 1016.55 1016.76 1017.02 1017.21 1017.31 1017.60 1017.88 1018.07 1018.21 1018.34 1018.66 1019.09
1015.34 1015.67 1015.92 1016.03 1016.29 1016.47 1016.66 1016.77 1016.77 1016.83 1016.86 1016.83 1016.82 1016.79 1016.65 1016.55 1016.39 1016.18 1015.94 1015.70 1015.63 1015.42 1015.31 1015.17 1015.11 1015.18 1015.32 1015.48 1015.66 1015.90 1016.18 1016.53 1016.83 1017.07 1017.26 1017.44 1017.58 1017.95 1018.15 1018.14 1018.32 1018.60 1019.20
1015.69 1015.87 1015.93 1016.02 1016.18 1016.42 1016.69 1016.81 1016.83 1016.85 1016.83 1016.89 1016.90 1016.86 1016.79 1016.66 1016.52 1016.34 1016.17 1015.92 1015.61 1015.44 1015.35 1015.22 1015.16 1015.12 1015.09 1015.24 1015.48 1015.83 1016.13 1016.34 1016.72 1017.06 1017.27 1017.48 1017.55 1017.83 1018.04 1018.33 1018.20 1018.78 1019.30
1015.86 1016.00 1015.97 1016.04 1016.16 1016.34 1016.60 1016.80 1016.92 1017.01 1017.02 1016.99 1016.98 1017.01 1016.95 1016.83 1016.75 1016.52 1016.24 1015.98 1015.78 1015.60 1015.30 1015.23 1015.18 1015.16 1015.08 1015.13 1015.31 1015.62 1015.93 1016.22 1016.61 1016.85 1017.16 1017.44 1017.49 1017.69 1018.01 1018.52 1018.65 1018.88 1019.34
1016.03 1016.19 1016.13 1016.15 1016.30 1016.45 1016.58 1016.74 1016.99 1017.12 1017.16 1017.12 1017.11 1017.13 1017.10 1017.10 1016.98 1016.81 1016.51 1016.22 1015.93 1015.51 1015.31 1015.25 1015.20 1015.17 1015.17 1015.15 1015.06 1015.30 1015.63 1016.06 1016.45 1016.82 1017.04 1017.23 1017.47 1017.68 1017.99 1018.57 1018.93 1019.09 1019.27
1015.93 1016.18 1016.29 1016.24 1016.37 1016.54 1016.72 1016.88 1016.94 1017.02 1017.08 1017.11 1017.11 1017.16 1017.21 1017.19 1017.22 1017.06 1016.81 1016.51 1016.17 1015.73 1015.42 1015.24 1015.21 1015.11 1015.08 1015.04 1015.05 1015.12 1015.42 1015.88 1016.33 1016.64 1016.93 1017.14 1017.39 1017.65 1017.94 1018.49 1018.88 1019.18 1019.35
1016.16 1016.30 1016.30 1016.33 1016.51 1016.64 1016.82 1016.99 1017.10 1017.09 1017.09 1017.18 1017.25 1017.26 1017.29 1017.32 1017.20 1017.08 1016.94 1016.72 1016.33 1015.97 1015.63 1015.34 1015.20 1015.01 1014.91 1014.81 1014.84 1014.93 1015.31 1015.69 1015.99 1016.41 1016.82 1017.16 1017.46 1017.52 1017.85 1018.52 1018.83 1019.06 1019.37
1016.12 1016.27 1016.39 1016.62 1016.70 1016.92 1017.08 1017.10 1017.18 1017.18 1017.23 1017.30 1017.46 1017.51 1017.43 1017.41 1017.38 1017.17 1016.95 1016.78 1016.38 1016.02 1015.70 1015.42 1015.16 1014.91 1014.68 1014.60 1014.54 1014.61 1014.95 1015.44 1015.78 1016.28 1016.73 1017.01 1017.23 1017.39 1017.95 1018.55 1018.91 1019.17 1019.34
1016.34 1016.45 1016.72 1016.75 1016.82 1016.99 1017.08 1017.21 1017.35 1017.36 1017.39 1017.53 1017.60 1017.60 1017.54 1017.46 1017.37 1017.13 1016.94 1016.76 1016.43 1016.10 1015.76 1015.38 1015.04 1014.71 1014.51 1014.32 1014.35 1014.40 1014.65 1015.09 1015.65 1016.12 1016.49 1016.75 1016.97 1017.48 1017.58 1018.37 1018.76 1019.25 1019.35
1016.07 1016.22 1016.38 1016.71 1016.80 1017.00 1017.05 1017.33 1017.58 1017.61 1017.69 1017.70 1017.69 1017.69 1017.58 1017.45 1017.34 1017.09 1016.89 1016.63 1016.39 1016.20 1015.76 1015.29 1014.79 1014.48 1014.23 1014.12 1014.17 1014.35 1014.35 1014.81 1015.47 1015.90 1016.39 1016.68 1017.23 1017.74 1017.76 1018.50 1018.85 1019.15 1019.34
1015.51 1015.88 1016.10 1016.48 1016.80 1016.97 1017.21 1017.48 1017.70 1017.82 1017.78 1017.71 1017.67 1017.59 1017.45 1017.28 1017.11 1016.97 1016.77 1016.50 1016.25 1015.89 1015.55 1015.20 1014.70 1014.17 1014.03 1014.12 1014.22 1014.42 1014.48 1014.73 1015.31 1015.86 1016.37 1016.92 1017.59 1018.27 1018.56 1018.49 1018.88 1019.03 1019.40
1015.35 1015.53 1016.00 1016.34 1016.68 1017.00 1017.34 1017.53 1017.76 1017.77 1017.76 1017.72 1017.69 1017.59 1017.38 1017.22 1017.11 1016.97 1016.72 1016.45 1016.21 1015.83 1015.47 1015.11 1014.64 1014.25 1013.96 1014.11 1014.24 1014.38 1014.50 1014.66 1015.27 1015.76 1016.40 1017.00 1017.79 1018.27 1018.22 1018.26 1018.55 1018.99 1019.52
1015.12 1015.38 1015.77 1016.18 1016.45 1016.96 1017.37 1017.68 1017.71 1017.71 1017.78 1017.79 1017.78 1017.69 1017.54 1017.30 1017.16 1016.97 1016.62 1016.28 1016.01 1015.68 1015.35 1015.00 1014.60 1014.22 1013.95 1014.13 1014.19 1014.45 1014.60 1014.75 1015.37 1015.72 1016.37 1016.81 1017.55 1017.57 1018.07 1018.29 1018.73 1018.68 1019.27
1014.84 1015.22 1015.68 1016.13 1016.57 1017.01 1017.36 1017.55 1017.70 1017.83 1017.82 1017.84 1017.78 1017.69 1017.50 1017.29 1017.12 1016.88 1016.56 1016.18 1015.78 1015.38 1015.02 1014.86 1014.61 1014.19 1014.04 1014.31 1014.42 1014.56 1014.67 1015.03 1015.53 1015.86 1016.40 1017.02 1017.44 1017.80 1018.19 1018.16 1018.64 1019.10 1018.97
1014.61 1015.12 1015.59 1016.26 1016.72 1017.06 1017.29 1017.47 1017.61 1017.78 1017.92 1017.92 1017.68 1017.51 1017.33 1017.12 1016.88 1016.63 1016.35 1015.88 1015.38 1014.92 1014.82 1014.61 1014.10 1014.15 1014.10 1014.38 1014.56 1014.67 1014.92 1015.26 1015.77 1015.87 1016.85 1017.38 1018.03 1018.41 1018.27 1018.02 1018.71 1019.26 1019.42
1014.64 1015.08 1015.64 1016.15 1016.70 1017.08 1017.30 1017.43 1017.60 1017.86 1017.92 1017.80 1017.66 1017.46 1017.23 1016.97 1016.69 1016.37 1016.04 1015.72 1015.22 1014.71 1014.36 1014.33 1014.12 1014.15 1014.22 1014.41 1014.81 1015.09 1015.33 1015.53 1016.12 1016.89 1017.49 1017.94 1018.32 1018.56 1018.48 1018.36 1018.94 1019.18 1019.62
1014.53 1015.24 1015.96 1016.42 1016.91 1017.26 1017.56 1017.73 1017.87 1017.90 1017.80 1017.82 1017.70 1017.42 1017.09 1016.73 1016.36 1016.12 1015.77 1015.49 1014.95 1014.54 1014.38 1014.19 1014.05 1013.78 1014.24 1014.64 1014.89 1015.26 1015.73 1016.05 1016.69 1017.29 1017.85 1018.35 1018.56 1018.93 1018.68 1018.63 1019.44 1019.69 1019.64
1014.75 1015.31 1015.99 1016.57 1017.01 1017.26 1017.51 1017.87 1018.00 1017.95 1017.79 1017.69 1017.48 1017.14 1016.79 1016.59 1016.32 1016.07 1015.78 1015.37 1015.04 1014.69 1014.29 1013.99 1013.88 1013.65 1014.07 1014.70 1014.91 1015.77 1015.88 1016.72 1017.19 1017.64 1018.35 1018.86 1019.08 1018.99 1019.13 1019.50 1020.02 1020.63 1020.74
1015.34 1015.54 1015.98 1016.54 1017.04 1017.28 1017.62 1017.82 1018.11 1018.22 1018.00 1017.66 1017.35 1016.98 1016.79 1016.65 1016.32 1016.28 1015.92 1015.42 1015.07 1014.83 1014.38 1014.13 1013.81 1014.04 1014.45 1015.12 1015.09 1016.27 1017.43 1017.82 1018.22 1018.36 1018.76 1019.30 1019.51 1019.79 1020.10 1020.37 1020.86 1021.50 1022.11
1015.56 1015.96 1016.29 1016.66 1017.02 1017.38 1017.62 1017.95 1018.18 1018.24 1018.05 1017.83 1017.40 1017.16 1017.00 1016.79 1016.65 1016.42 1016.01 1015.60 1015.13 1014.80 1014.35 1013.90 1013.46 1014.10 1014.70 1015.02 1015.09 1016.23 1017.81 1019.23 1019.23 1019.55 1019.65 1020.00 1020.24 1020.33 1021.07 1021.68 1021.64 1022.51 1022.73
1016.04 1016.34 1016.53 1016.90 1017.27 1017.43 1017.70 1017.94 1018.01 1018.17 1018.14 1017.85 1017.65 1017.38 1017.15 1016.98 1016.83 1016.51 1016.06 1015.80 1015.23 1014.80 1014.33 1013.94 1013.74 1013.72 1014.35 1015.08 1015.68 1016.16 1017.42 1018.84 1019.98 1020.97 1020.60 1020.54 1020.98 1021.34 1022.19 1022.35 1022.63 1023.33 1023.42
1015.92 1016.45 1016.49 1016.78 1017.30 1017.53 1017.86 1017.75 1018.00 1018.20 1018.26 1018.11 1018.07 1017.84 1017.50 1017.19 1016.92 1016.60 1016.28 1015.84 1015.32 1014.78 1014.30 1013.88 1013.73 1013.84 1014.44 1015.08 1015.97 1016.25 1016.21 1017.89 1019.74 1020.96 1021.67 1021.77 1022.17 1022.59 1023.11 1023.60 1023.83 1024.03 1023.95
1015.97 1016.36 1016.63 1016.89 1017.31 1017.71 1017.87 1017.83 1017.97 1018.13 1018.30 1018.28 1018.27 1017.92 1017.66 1017.34 1017.06 1016.75 1016.32 1015.80 1015.47 1015.04 1014.57 1014.00 1013.75 1014.09 1014.38 1015.00 1015.44 1016.53 1017.35 1018.21 1019.13 1020.15 1021.99 1023.03 1023.13 1023.79 1023.95 1024.28 1024.30 1024.37 1024.61
1016.10 1016.59 1016.75 1016.93 1017.37 1017.76 1017.82 1017.87 1017.90 1018.04 1018.09 1018.12 1018.17 1017.96 1017.92 1017.54 1017.22 1016.94 1016.52 1016.03 1015.80 1015.31 1014.75 1014.18 1013.90 1014.04 1014.68 1015.17 1015.68 1016.51 1016.95 1017.90 1019.49 1020.03 1021.25 1022.47 1023.21 1024.45 1024.47 1024.81 1024.80 1024.99 1025.15
Wind_Speed
3 4 9 7 6 6 6 7 7 7 7 8 8 9 9 10 10 8 6 5 4 5 7 7 8 8 9 9 8 10 11 9 9 9 10 14 18 18 18 16 14 13 13
10 7 10 9 7 6 6 6 6 6 7 7 7 8 8 9 9 10 11 9 8 5 7 9 10 10 11 9 9 9 10 9 8 8 11 14 16 17 18 17 14 14 13
10 7 7 9 7 7 6 5 5 5 6 7 7 7 7 7 8 9 9 10 9 8 8 9 8 10 9 9 10 11 11 10 9 11 11 11 12 17 19 19 17 15 14
10 8 6 9 8 7 6 5 5 5 6 6 7 8 8 8 8 9 10 10 9 10 9 10 10 8 8 9 10 12 12 11 11 12 10 11 12 18 17 17 17 15 14
8 7 6 9 8 7 5 5 5 5 5 6 7 8 9 9 9 9 9 9 10 9 9 9 9 8 6 9 10 11 11 12 13 12 11 12 10 14 16 14 17 17 14
7 6 7 9 8 7 6 4 4 5 6 6 7 8 9 10 10 11 9 9 9 9 8 9 9 8 7 5 10 11 12 13 15 12 12 12 11 14 14 14 17 17 14
7 5 5 8 7 7 6 5 4 4 6 6 7 9 10 10 11 11 11 10 11 8 8 9 11 8 7 6 8 11 12 14 13 11 11 12 11 15 17 16 15 15 14
9 6 5 7 7 6 5 4 4 3 4 6 7 9 10 11 11 12 11 11 11 10 9 9 11 10 8 6 7 10 12 13 12 12 12 11 12 17 18 17 16 15 13
6 6 5 4 4 5 5 4 3 3 4 6 8 10 10 12 12 13 12 12 11 11 11 10 11 12 11 9 7 9 11 14 12 9 10 7 10 18 18 17 17 17 13
5 5 5 4 3 2 1 1 3 3 5 6 8 9 10 10 11 11 13 12 14 13 12 11 12 12 11 12 6 6 14 15 12 11 8 5 12 19 18 17 16 16 14
4 5 4 4 4 3 3 1 3 4 5 7 7 8 7 5 7 9 11 14 15 14 13 12 13 12 10 6 7 7 13 8 10 8 6 11 15 18 22 19 17 15 14
7 6 6 5 5 4 2 3 2 2 3 3 4 5 4 6 6 8 9 13 13 14 14 14 14 13 6 3 2 6 6 10 9 8 5 12 11 13 16 18 17 14 14
5 4 7 6 5 5 3 2 1 2 2 2 4 4 4 4 5 5 4 4 5 8 5 8 8 4 5 3 4 4 5 9 6 6 8 12 18 17 13 15 15 14 19
6 6 4 6 5 4 2 2 2 1 1 2 3 5 4 3 5 6 5 6 5 5 7 6 4 4 4 5 7 6 6 6 5 5 10 19 20 23 20 15 14 18 18
6 5 5 4 5 4 4 2 1 0 1 3 3 4 3 4 4 5 6 6 5 6 5 5 5 4 4 4 6 4 6 8 8 6 7 17 18 18 18 18 16 21 20
5 4 3 4 4 5 3 3 1 1 3 3 3 3 4 3 3 5 6 6 6 4 4 4 5 4 4 2 2 6 6 7 7 9 7 7 9 19 21 17 16 18 21
5 5 5 6 6 5 4 3 1 1 2 3 3 4 5 4 5 5 5 5 5 5 5 4 4 3 4 3 3 5 6 8 8 10 6 4 1 3 10 16 14 17 19
5 6 6 6 7 5 4 2 1 2 1 2 3 3 5 6 6 5 4 5 6 6 5 4 4 3 3 3 4 5 5 7 9 9 7 5 4 1 3 6 11 17 19
6 8 7 7 6 5 3 2 3 2 2 3 3 3 5 5 5 4 4 5 6 5 4 4 4 6 5 4 2 5 6 7 8 7 9 8 8 5 3 9 12 8 15
8 8 8 6 6 5 3 2 2 1 2 1 2 3 3 4 5 5 6 6 5 6 5 4 3 4 6 4 2 9 7 7 7 8 9 7 8 9 9 10 10 9 9
7 8 8 8 5 3 1 2 1 1 1 1 3 5 5 6 5 6 6 6 5 5 7 6 3 6 5 8 6 10 10 11 8 8 8 8 10 9 11 11 8 7 5
7 6 7 6 5 3 2 1 1 0 1 2 3 4 5 6 7 6 6 6 7 5 6 6 3 5 3 4 3 6 4 6 7 7 8 8 10 9 11 10 11 8 6
6 6 6 5 5 4 3 2 1 1 1 1 2 3 5 7 6 6 6 6 6 5 5 6 4 7 7 3 2 4 4 4 3 4 9 8 10 9 7 9 10 7 7
6 5 6 6 5 4 3 2 3 1 0 1 2 3 5 7 6 6 6 6 6 5 6 3 2 3 6 7 4 3 5 10 4 4 5 8 8 10 8 6 7 7 7
6 5 5 6 5 4 3 4 3 2 1 1 2 4 5 6 6 6 6 7 6 5 6 2 3 3 5 8 6 5 7 7 3 5 5 3 6 6 6 5 5 6 6
4 5 5 6 4 4 3 5 3 3 1 1 2 3 4 5 4 5 7 6 6 6 7 2 3 7 7 8 8 7 8 6 6 5 5 5 7 3 5 3 5 5 5
Wind_Direction
147 157 131 125 104 81 62 46 36 31 28 22 11 11 3 13 17 18 352 327 308 284 270 250 237 211 195 183 198 175 174 168 164 162 162 151 137 127 122 117 114 108 106
147 161 138 130 117 92 74 59 43 33 25 22 19 12 9 3 354 4 16 4 350 314 286 273 247 230 225 221 189 186 174 168 166 134 136 142 137 133 131 123 116 107 105
148 147 130 127 114 103 94 80 65 48 33 21 14 11 7 1 356 346 354 354 3 335 315 298 280 247 240 226 196 197 183 173 161 142 138 143 140 142 139 132 124 121 111
145 139 133 132 122 117 105 88 75 56 36 25 15 6 3 0 357 352 343 337 341 352 334 315 308 287 249 231 208 192 190 179 161 148 151 150 150 151 149 140 130 126 120
138 139 145 137 133 127 110 90 69 57 48 29 18 10 3 358 355 352 345 331 321 331 339 337 327 314 263 231 217 206 198 181 166 157 162 162 164 165 158 150 133 124 124
148 148 156 149 145 139 126 101 72 55 45 41 29 17 5 360 352 347 341 343 327 299 302 329 330 332 342 251 222 213 197 177 163 170 171 171 176 170 154 140 129 132 133
156 164 166 156 153 147 140 118 83 53 40 32 26 15 6 359 354 346 342 334 326 309 305 312 321 321 324 310 245 209 191 176 176 175 173 175 180 167 152 143 141 136 141
160 169 178 165 163 161 152 131 106 69 40 28 21 9 3 1 352 344 334 326 321 315 311 301 297 310 302 300 287 213 194 174 172 181 181 182 182 174 156 152 148 145 144
169 172 179 175 171 162 156 149 96 54 41 22 15 10 3 355 349 342 334 325 313 307 302 295 290 301 303 294 271 240 189 166 180 180 179 182 190 176 157 157 156 150 147
181 189 189 186 175 173 174 189 107 62 39 24 13 7 2 354 344 336 332 322 313 304 298 292 285 284 290 289 265 247 181 165 180 176 182 180 190 174 159 160 159 154 145
209 210 197 198 196 191 189 186 78 46 39 25 9 -0 355 346 335 328 325 323 318 309 301 295 290 283 288 258 262 230 168 177 175 173 171 172 189 172 163 161 158 160 146
207 210 202 206 203 192 202 120 80 48 29 7 357 351 347 337 333 329 323 321 320 311 304 305 304 289 227 234 235 168 178 170 174 171 164 163 176 204 146 158 161 157 150
196 198 197 202 199 191 180 129 72 36 355 351 355 350 335 329 324 319 312 314 315 305 301 312 311 270 199 201 175 171 174 164 156 165 165 131 128 117 158 160 159 153 142
195 212 202 202 192 188 136 109 85 19 336 345 333 331 328 327 325 320 315 315 309 306 304 312 310 266 188 192 184 159 164 146 149 159 143 132 145 164 167 163 175 154 145
208 213 214 186 187 158 135 116 127 290 348 326 322 317 322 320 316 316 311 312 309 304 303 311 313 263 165 179 161 135 155 131 153 147 145 152 172 158 161 174 170 154 143
206 212 169 170 144 133 139 139 146 2 344 324 316 321 319 310 304 304 306 307 304 288 298 307 307 246 188 144 152 132 119 108 119 130 138 134 170 160 177 177 173 161 144
197 154 152 128 128 128 129 129 78 10 358 324 308 312 323 310 302 298 295 292 293 282 292 304 302 219 151 132 142 115 114 114 111 109 115 93 69 278 209 173 180 164 150
149 148 126 128 120 124 117 105 51 22 345 325 331 321 315 304 295 301 299 298 302 298 302 311 308 202 132 140 160 140 133 112 100 96 101 104 104 106 69 144 171 170 154
148 133 121 120 121 116 99 65 48 9 344 340 321 309 307 298 293 300 299 307 313 301 280 268 283 168 154 159 168 129 137 111 99 95 85 79 78 68 62 70 93 96 160
121 119 123 117 121 110 89 62 34 355 4 323 304 285 307 310 308 327 323 319 323 320 309 298 291 195 137 159 116 69 61 85 98 91 86 80 77 68 70 79 89 85 82
107 124 130 131 138 116 84 59 32 8 331 330 325 337 340 327 332 342 317 318 316 324 299 297 249 163 107 124 119 75 60 54 53 84 81 80 71 75 77 64 74 64 44
135 132 130 135 141 119 106 117 124 298 312 289 313 336 347 343 358 320 318 317 324 326 309 312 225 126 96 153 117 97 80 51 33 36 83 83 72 80 60 63 68 66 49
139 153 141 147 128 119 117 124 122 43 321 328 357 346 350 346 331 317 324 328 316 322 316 301 159 153 142 87 157 120 132 96 133 348 44 70 70 76 69 60 57 61 63
163 151 144 140 130 122 126 141 87 121 147 324 322 330 336 332 330 336 335 337 332 324 337 338 195 116 125 137 98 26 96 126 120 102 31 53 56 64 70 63 70 57 57
158 150 161 127 125 122 152 111 122 126 233 346 332 350 338 319 323 340 345 351 343 334 335 287 134 129 117 151 118 111 92 97 92 112 109 127 80 49 68 66 76 68 51
148 147 165 131 138 134 174 111 145 130 108 359 339 351 342 324 336 351 351 348 345 343 336 334 92 125 114 115 117 132 142 139 147 142 108 79 98 51 61 63 60 61 50